CW5619 Weather Reports


time (UTC)temp
C
wind
direction
speed
KPH
gust
KPH
rain 1hr
cm
rain 24hr
cm
rain mn
cm
humidity
%
barometer
mb
20220811225406 35 28 3.2 9.7 0.00 0.36 0.00 37 1014.3
20220811224405 35 11 1.6 11.3 0.00 0.36 0.00 37 1014.5
20220811223406 35 32 4.8 12.9 0.00 0.36 0.00 36 1014.7
20220811222405 36 43 1.6 8.0 0.00 0.36 0.00 35 1014.6
20220811221406 36 19 4.8 9.7 0.00 0.36 0.00 33 1014.8
20220811220406 36 11 3.2 11.3 0.00 0.36 0.00 32 1014.9
20220811215906 36 58 1.6 4.8 0.00 0.36 0.00 33 1015.1
20220811213906 36 61 0.0 4.8 0.00 0.36 0.00 34 1015.5
20220811212406 35 75 0.0 8.0 0.00 0.36 0.00 35 1015.8
20220811210406 35 40 1.6 4.8 0.00 0.36 0.00 36 1016.1
20220811204906 35 13 0.0 4.8 0.00 0.36 0.00 36 1016.5
20220811203406 35 6 0.0 8.0 0.00 0.36 0.00 37 1016.6
20220811201906 33 35 0.0 4.8 0.00 0.36 0.00 40 1016.9
20220811201406 33 40 0.0 4.8 0.00 0.36 0.00 40 1016.9
20220811200406 33 25 1.6 8.0 0.00 0.36 0.00 39 1017.2
20220811195405 32 24 3.2 4.8 0.00 0.36 0.00 41 1017.3
20220811194407 32 13 1.6 8.0 0.00 0.36 0.00 42 1017.3
20220811193406 32 156 0.0 4.8 0.00 0.36 0.00 45 1017.5
20220811192405 31 140 0.0 4.8 0.00 0.36 0.00 45 1017.6
20220811191906 31 144 0.0 4.8 0.00 0.36 0.00 45 1017.6
20220811185906 31 176 1.6 4.8 0.00 0.36 0.00 47 1018.0
20220811185405 30 159 0.0 3.2 0.00 0.36 0.00 48 1018.1
20220811184906 30 121 0.0 3.2 0.00 0.36 0.00 48 1018.2
20220811184406 30 126 0.0 3.2 0.00 0.36 0.00 48 1018.2
20220811183406 30 162 0.0 1.6 0.00 0.36 0.00 48 1018.2
20220811181906 30 127 0.0 4.8 0.00 0.36 0.00 50 1018.2
20220811181407 29 101 0.0 3.2 0.00 0.36 0.00 51 1018.3
20220811180906 29 103 0.0 3.2 0.00 0.36 0.00 52 1018.3
20220811175906 28 209 0.0 1.6 0.00 0.36 0.00 53 1018.6
20220811174906 28 209 0.0 3.2 0.00 0.36 0.00 52 1018.6
20220811173406 28 211 0.0 4.8 0.00 0.36 0.00 52 1018.8
20220811172906 28 211 1.6 4.8 0.00 0.36 0.00 52 1018.8
20220811171405 28 217 1.6 4.8 0.00 0.36 0.00 53 1018.9
20220811165406 28 179 1.6 4.8 0.00 0.36 0.00 53 1018.7
20220811162405 28 329 0.0 0.0 0.00 0.36 0.00 59 1018.5
20220811161404 27 329 0.0 0.0 0.00 0.36 0.00 62 1018.4
20220811160904 27 329 0.0 0.0 0.00 0.36 0.00 62 1018.5
20220811160405 26 329 0.0 4.8 0.00 0.36 0.00 63 1018.4
20220811155405 26 323 0.0 0.0 0.00 0.36 0.00 64 1018.4
20220811154904 26 323 0.0 0.0 0.00 0.36 0.00 64 1018.4
20220811153904 26 323 0.0 0.0 0.00 0.36 0.00 66 1018.3
20220811152905 26 323 0.0 1.6 0.00 0.36 0.00 66 1018.2
20220811152405 26 323 0.0 1.6 0.00 0.36 0.00 67 1018.2
20220811151404 25 323 0.0 3.2 0.00 0.36 0.00 67 1018.0
20220811150905 25 36 0.0 0.0 0.00 0.36 0.00 68 1017.9
20220811145906 25 36 0.0 3.2 0.00 0.36 0.00 66 1017.7
20220811145405 25 36 0.0 1.6 0.00 0.36 0.00 67 1017.6
20220811144405 25 36 0.0 3.2 0.00 0.36 0.00 67 1017.5
20220811143405 25 40 0.0 3.2 0.00 0.36 0.00 66 1017.6
20220811142404 25 51 0.0 1.6 0.00 0.36 0.00 65 1017.6
20220811141905 25 53 0.0 3.2 0.00 0.36 0.00 65 1017.5
20220811134905 25 89 0.0 3.2 0.00 0.36 0.00 67 1017.6
20220811134404 25 92 0.0 4.8 0.00 0.36 0.00 67 1017.5
20220811133905 25 92 0.0 4.8 0.00 0.36 0.00 67 1017.5
20220811133404 25 88 1.6 8.0 0.00 0.36 0.00 66 1017.6
20220811132405 25 102 0.0 4.8 0.00 0.36 0.00 66 1017.4
20220811131904 25 94 0.0 8.0 0.00 0.36 0.00 65 1017.4
20220811125905 25 96 0.0 11.3 0.00 0.36 0.00 63 1017.1
20220811125406 25 115 1.6 11.3 0.00 0.36 0.00 63 1017.1
20220811124404 25 141 3.2 8.0 0.00 0.36 0.00 64 1017.3
20220811123404 25 117 1.6 11.3 0.00 0.36 0.00 66 1017.4
20220811120405 24 138 1.6 8.0 0.00 0.36 0.00 72 1017.8
20220811115904 24 82 0.0 8.0 0.00 0.36 0.00 72 1017.7
20220811114905 25 101 0.0 4.8 0.00 0.36 0.00 72 1017.7
20220811113405 25 84 0.0 3.2 0.00 0.36 0.00 72 1017.7
20220811112904 25 92 0.0 3.2 0.00 0.36 0.00 73 1017.7
20220811112404 25 115 0.0 4.8 0.00 0.36 0.00 73 1017.8
20220811111905 25 125 0.0 4.8 0.00 0.36 0.00 73 1017.8
20220811110905 25 196 1.6 4.8 0.00 0.36 0.00 72 1017.8
20220811105905 25 165 1.6 8.0 0.00 0.36 0.00 71 1017.8
20220811105405 25 180 3.2 8.0 0.00 0.36 0.00 71 1017.7
20220811103405 25 143 3.2 8.0 0.00 0.36 0.00 71 1018.0
20220811102905 25 102 3.2 12.9 0.00 0.36 0.00 72 1018.1
20220811102405 25 149 4.8 14.5 0.00 0.36 0.00 73 1018.2
20220811101405 25 97 4.8 14.5 0.00 0.36 0.00 74 1018.4
20220811095905 25 115 6.4 16.1 0.00 0.36 0.00 75 1018.7
20220811095405 25 114 3.2 16.1 0.00 0.36 0.00 75 1018.8
20220811094905 25 145 4.8 16.1 0.00 0.36 0.00 76 1018.8
20220811094404 24 125 4.8 11.3 0.00 0.36 0.00 76 1018.8
20220811093405 24 107 3.2 8.0 0.00 0.36 0.00 77 1018.6
20220811091904 23 95 1.6 4.8 0.00 0.36 0.00 77 1018.5
20220811091405 23 80 3.2 4.8 0.00 0.36 0.00 77 1018.5
20220811090404 23 127 0.0 4.8 0.00 0.36 0.00 77 1018.6
20220811085904 23 36 0.0 3.2 0.00 0.36 0.00 76 1018.6
20220811084905 23 56 1.6 8.0 0.00 0.36 0.00 75 1018.6
20220811084405 23 72 1.6 8.0 0.00 0.36 0.00 74 1018.6
20220811082904 23 77 3.2 9.7 0.00 0.36 0.00 76 1018.5
20220811080904 23 58 3.2 11.3 0.00 0.41 0.00 76 1018.3
20220811075905 23 30 4.8 11.3 0.00 0.46 0.00 75 1018.5
20220811075405 23 65 1.6 11.3 0.00 0.48 0.00 75 1018.6
20220811072405 23 24 6.4 19.3 0.00 0.69 0.00 79 1018.6
20220811071904 23 28 8.0 22.5 0.00 0.69 0.00 80 1018.5
20220811071405 23 30 8.0 22.5 0.00 0.69 0.00 80 1018.7
20220811070905 23 9 8.0 16.1 0.00 0.69 0.00 82 1018.9
20220811070405 23 16 8.0 16.1 0.00 0.69 0.00 83 1018.9
20220811065905 23 1 4.8 12.9 0.00 0.69 0.69 84 1019.0
20220811064405 22 24 8.0 16.1 0.03 0.69 0.69 83 1018.9
20220811063905 23 11 6.4 14.5 0.10 0.69 0.69 83 1018.8
20220811063404 23 28 6.4 14.5 0.30 0.69 0.69 84 1018.9
20220811062905 23 31 4.8 14.5 0.36 0.69 0.69 84 1018.9
20220811062404 23 6 0.0 9.7 0.36 0.69 0.69 83 1018.8
20220811061905 23 352 3.2 8.0 0.36 0.69 0.69 83 1018.8
20220811061405 23 11 1.6 8.0 0.36 0.69 0.69 82 1019.0
20220811055404 24 244 0.0 3.2 0.36 0.69 0.69 80 1019.7
20220811054905 25 244 0.0 4.8 0.36 0.69 0.69 79 1020.0
20220811054404 25 230 1.6 8.0 0.33 0.66 0.66 78 1020.2
20220811052905 26 180 4.8 11.3 0.00 0.33 0.33 71 1020.4
20220811052405 26 157 3.2 11.3 0.00 0.33 0.33 68 1020.3
20220811051405 25 344 0.0 3.2 0.00 0.33 0.33 69 1020.0
20220811050405 25 19 1.6 8.0 0.00 0.33 0.33 70 1019.3
20220811045905 25 19 0.0 8.0 0.00 0.33 0.33 71 1019.1
20220811045405 25 20 1.6 8.0 0.00 0.33 0.33 71 1018.7
20220811041905 26 62 4.8 9.7 0.00 0.33 0.33 62 1017.8
20220811041405 26 53 3.2 9.7 0.00 0.33 0.33 60 1017.7
20220811040905 26 83 1.6 12.9 0.00 0.33 0.33 60 1017.7
20220811040405 26 51 6.4 12.9 0.00 0.33 0.33 58 1017.5
20220811035905 26 50 4.8 12.9 0.00 0.33 0.33 58 1017.5
20220811034905 26 138 3.2 12.9 0.00 0.33 0.33 57 1017.6
20220811034405 26 88 3.2 11.3 0.00 0.33 0.33 56 1017.5
20220811033905 26 88 4.8 9.7 0.00 0.33 0.33 56 1017.4
20220811030405 27 23 11.3 35.4 0.00 0.33 0.33 50 1016.6
20220811024405 31 67 1.6 9.7 0.00 0.33 0.33 46 1017.0
20220811021905 31 185 0.0 0.0 0.00 0.33 0.33 44 1016.4
20220811014404 32 228 0.0 4.8 0.00 0.33 0.33 41 1015.6
20220811013905 32 254 1.6 3.2 0.00 0.33 0.33 42 1015.8
20220811005905 31 17 1.6 4.8 0.00 0.33 0.33 45 1014.5
20220811005405 32 17 1.6 4.8 0.00 0.33 0.33 45 1014.5
20220811004905 32 13 1.6 9.7 0.00 0.33 0.33 47 1014.5
20220811003405 33 46 3.2 19.3 0.00 0.33 0.33 44 1014.6
20220811001405 37 283 0.0 8.0 0.00 0.33 0.33 30 1014.3
20220811000405 38 250 1.6 9.7 0.00 0.33 0.33 31 1014.3
20220810234905 38 282 1.6 11.3 0.00 0.33 0.33 31 1013.9
20220810233905 38 285 0.0 8.0 0.00 0.33 0.33 30 1014.2
20220810233405 38 287 1.6 8.0 0.00 0.33 0.33 30 1014.2